Location: Asheville, NC
(35.6000°N, 82.5500°W)
Time: 00:25:38
(UTC-04:00)

FO-29 - Pass Details

Date: 15 March 2018
Orbit: 799 x 1322 km, 98.5° (Epoch: 24 June)

Event Time Altitude Azimuth Distance (km) Brightness Sun altitude
Rises 20:12:03 0° 25° (NNE) 4,106 12.5 -7.8°
Reaches altitude 10° 20:15:00 10° 35° (NE) 3,201 11.9 -8.4°
Maximum altitude 20:21:31 32° 96° (E) 2,073 10.7 -9.7°
Drops below altitude 10° 20:28:17 10° 156° (SSE) 3,339 12.0 -11.1°
Sets 20:31:23 0° 165° (SSE) 4,306 12.6 -11.7°
